Location: *
(52.2090°N, 4.1550°W)
Time: 03:29:38
(UTC+00:00)

Sich 1 - Pass Details

Date: 19 July 2019
Orbit: 595 x 625 km, 82.5° (Epoch: 20 August)

Event Time Altitude Azimuth Distance (km) Brightness Sun altitude
Exits shadow 23:05:43 13° 211° (SSW) 1,723 5.0 -15.1°
Maximum altitude 23:09:20 50° 286° (WNW) 769 3.7 -15.3°
Drops below altitude 10° 23:13:31 10° 2° (N) 1,946 6.8 -15.5°
Sets 23:15:48 0° 8° (N) 2,852 7.7 -15.6°
